TimeCDT,TemperatureF,Dew PointF,Humidity,Sea Level PressureIn,VisibilityMPH,Wind Direction,Wind SpeedMPH,Gust SpeedMPH,PrecipitationIn,Events,Conditions,WindDirDegrees,DateUTC
12:54 AM,68.0,64.0,87,29.91,10.0,SW,10.4,-,N/A,,Overcast,230,2013-06-16 05:54:00
1:54 AM,68.0,64.0,87,29.93,10.0,WSW,10.4,-,N/A,,Overcast,240,2013-06-16 06:54:00
2:54 AM,68.0,64.9,90,29.93,10.0,WSW,6.9,-,N/A,,Overcast,250,2013-06-16 07:54:00
3:54 AM,69.1,64.9,87,29.92,10.0,West,9.2,-,N/A,,Overcast,260,2013-06-16 08:54:00
4:54 AM,69.1,64.9,87,29.93,10.0,WNW,9.2,-,N/A,,Overcast,290,2013-06-16 09:54:00
5:54 AM,69.1,64.9,87,29.92,10.0,WNW,8.1,-,N/A,,Overcast,300,2013-06-16 10:54:00
6:54 AM,69.1,64.9,87,29.93,10.0,NW,6.9,-,N/A,,Overcast,320,2013-06-16 11:54:00
7:54 AM,71.1,66.0,84,29.94,9.0,NNW,4.6,-,N/A,,Overcast,340,2013-06-16 12:54:00
8:35 AM,73.0,66.0,79,29.96,10.0,Calm,Calm,-,N/A,,Mostly Cloudy,0,2013-06-16 13:35:00
8:54 AM,73.9,66.0,76,29.95,10.0,Calm,Calm,-,N/A,,Mostly Cloudy,0,2013-06-16 13:54:00
9:54 AM,77.0,66.0,69,29.96,10.0,Calm,Calm,-,N/A,,Scattered Clouds,0,2013-06-16 14:54:00
10:54 AM,81.0,66.0,60,29.95,10.0,NE,5.8,-,N/A,,Partly Cloudy,40,2013-06-16 15:54:00
11:54 AM,82.9,55.0,38,29.95,10.0,NE,9.2,17.3,N/A,,Partly Cloudy,40,2013-06-16 16:54:00
12:54 PM,84.0,57.9,41,29.95,10.0,Variable,5.8,-,N/A,,Partly Cloudy,0,2013-06-16 17:54:00
1:54 PM,84.0,57.0,40,29.94,10.0,Calm,Calm,-,N/A,,Mostly Cloudy,0,2013-06-16 18:54:00
2:54 PM,87.1,55.0,33,29.94,10.0,Variable,4.6,-,N/A,,Mostly Cloudy,0,2013-06-16 19:54:00
3:54 PM,86.0,57.9,38,29.93,10.0,Variable,4.6,-,N/A,,Mostly Cloudy,0,2013-06-16 20:54:00
4:54 PM,87.1,52.0,30,29.93,10.0,West,6.9,-,N/A,,Scattered Clouds,280,2013-06-16 21:54:00
5:54 PM,87.1,50.0,28,29.92,10.0,North,6.9,-,N/A,,Partly Cloudy,360,2013-06-16 22:54:00
6:54 PM,84.9,50.0,30,29.92,10.0,NNW,6.9,-,N/A,,Scattered Clouds,330,2013-06-16 23:54:00
7:54 PM,84.0,48.0,28,29.91,10.0,North,3.5,-,N/A,,Scattered Clouds,350,2013-06-17 00:54:00
8:54 PM,78.1,55.0,45,29.93,10.0,West,3.5,-,N/A,,Mostly Cloudy,260,2013-06-17 01:54:00
9:54 PM,75.9,54.0,46,29.93,10.0,SW,3.5,-,N/A,,Mostly Cloudy,230,2013-06-17 02:54:00
10:54 PM,75.9,55.0,48,29.94,10.0,Calm,Calm,-,N/A,,Mostly Cloudy,0,2013-06-17 03:54:00
11:54 PM,71.1,57.9,63,29.93,10.0,Calm,Calm,-,N/A,,Mostly Cloudy,0,2013-06-17 04:54:00